Regional Weather Roundup
Issued by NWS

Home | Current Version | Previous Version | Text Only | Print | Product List | Glossary Off
Versions: 1 2 3 4 5 6 7 8 9 10 11 12 13 14 15 16 17 18 19 20 21 22 23 24 25 26 27 28 29 30 31 32 33 34 35 36 37 38 39 40 41 42 43 44 45 46 47 48 49 50

000
ASUS44 KMEG 221100
RWRTN
TENNESSEE HOURLY STATE WEATHER ROUNDUP
NATIONAL WEATHER SERVICE MEMPHIS TN
600 AM CDT WED OCT 22 2014

TNZ002-004-019-021-049-052-054-088>092-221200-
WEST TENNESSEE

CITY           SKY/WX    TMP DP  RH WIND       PRES   REMARKS
MEMPHIS INTL   CLEAR     52  45  77 E6        30.19R
JACKSON        CLEAR     43  41  93 CALM      30.20R FOG
DYERSBURG      CLEAR     45  34  65 NE5       30.23R
UNION CITY     CLEAR     43  39  87 NE3       30.20R
PARIS          CLEAR     39  37  93 NE3       30.21R
LEXINGTON      CLEAR     41  39  93 CALM      30.17S
SAVANNAH       CLEAR     39  39 100 CALM      30.18R
$$

TNZ008-025-027-028-033-062-065-066-221200-
NORTH MIDDLE TENNESSEE

CITY           SKY/WX    TMP DP  RH WIND       PRES   REMARKS
NASHVILLE      CLEAR     44  41  89 N5        30.20R
CLARKSVILLE    CLEAR     44  40  85 N3        30.22R
COOKEVILLE     CLEAR     36  36 100 CALM      30.18R
CROSSVILLE     PTCLDY    43  38  82 N7        30.17R
$$

TNZ061-075-076-078-094-096-097-221200-
SOUTH MIDDLE TENNESSEE

CITY           SKY/WX    TMP DP  RH WIND       PRES   REMARKS
WINCHESTER     CLEAR     36  36 100 CALM      30.16S
MCMINNVILLE    CLEAR     37  37 100 CALM      30.17S
SHELBYVILLE    CLEAR     39  39 100 CALM      30.19R
$$

TNZ017-018-042-046-047-221200-
NORTHEAST TENNESSEE

CITY           SKY/WX    TMP DP  RH WIND       PRES   REMARKS
TRI CITIES     CLOUDY    47  37  68 NW5       30.14R
ELIZABETHTON   CLOUDY    45  36  70 W6        30.13R
$$

TNZ012-013-036-069-073-074-221200-
CENTRAL EAST TENNESSEE

CITY           SKY/WX    TMP DP  RH WIND       PRES   REMARKS
KNOXVILLE      CLEAR     43  40  89 E3        30.15R
OAK RIDGE      CLEAR     42  39  89 CALM      30.17R
GATLINBURG     PTSUNNY   37  37 100 CALM      30.15R
MORRISTOWN     SUNNY     45  41  87 CALM      30.15R
$$

TNZ083-085-099-221200-
SOUTHEAST TENNESSEE

CITY           SKY/WX    TMP DP  RH WIND       PRES   REMARKS
CHATTANOOGA    CLEAR     44  39  82 CALM      30.15R
$$

SKY/WX REPORTED AS FAIR MEANS FEW OR NO CLOUDS BELOW
12 THOUSAND FEET.




USA.gov is the U.S. government's official web portal to all federal, state and local government web resources and services.